Location: Gipe Farm
(40.9466°N, 95.5370°W)
Time: 05:27:49
(UTC-05:00)

Cosmos 1842 - Visible Passes

Search period start: 26 September 2016 00:00
Search period end: 06 October 2016 00:00
Orbit: 524 x 543 km, 82.5° (Epoch: 25 September)

Date Brightness Start Highest point End Pass type
(mag) Time Alt. Az. Time Alt. Az. Time Alt. Az.
26 Sep 7.2 06:15:01 10° E 06:16:02 11° E 06:17:04 10° ENE visible
27 Sep 7.2 06:05:58 10° E 06:06:37 10° E 06:07:16 10° ENE visible
02 Oct 3.2 06:51:05 10° SSW 06:54:55 64° W 06:58:47 10° N visible
03 Oct 3.2 06:41:37 10° SSW 06:45:28 68° W 06:49:20 10° N visible
04 Oct 3.1 06:32:09 10° SSW 06:36:00 71° W 06:39:54 10° N visible
05 Oct 3.1 06:22:40 10° SSW 06:26:32 75° W 06:30:26 10° N visible
